Home   Weather   Abidjan   Past weeks

Flag for Cote d'Ivoire (Ivory Coast) Past Weather in Abidjan, Cote d'Ivoire (Ivory Coast) — Yesterday and Last 2 Weeks

Now
79 °F

Scattered clouds.


Feels Like: 83 °F
Forecast: 77 / 90 °F
Wind: 1 mph from West

Location: Abidjan Airport

Current Time: Apr 23, 2017 at 8:06:59 am

Latest Report: Apr 23, 2017 at 7:00 am


Visibility: N/A

Pressure: 29.86 "Hg

Humidity: 94%

Dew Point: 77 °F

Location of AbidjanLocation

Past Weather in Abidjan — Graph

°F

Abidjan Temperature Yesterday

Maximum temperature yesterday: 90 °F (at 11:00 am)
Minimum temperature yesterday: 79 °F (at 1:00 am)
Average temperature yesterday: 83 °F

High & Low Weather Summary for the Past Weeks

 TemperatureHumidityPressure
High91 °F (Apr 8, 12:00 pm)100% (Apr 9, 11:00 pm)29.95 "Hg (Apr 9, 11:00 pm)
Low73 °F (Apr 9, 10:00 pm)59% (Apr 9, 12:30 pm)29.71 "Hg (Apr 8, 4:00 pm)
Average84 °F82%29.81 "Hg
* Reported Apr 8 6:00 am — Apr 23 6:30 am, Abidjan, Weather by CustomWeather, © 2017

Note: Actual official high and low records may vary slightly from our data, if they occured in-between our weather recording intervals... More about our weather records

Advertising

Abidjan Weather History for the Previous 24 Hours

Scroll right to see more
 ConditionsComfort  
Time TempWeatherWind HumidityBarometerVisibility
6:30 am
Sun, Apr 23
79 °FPassing clouds.2 mph94%29.86 "Hg5 mi
6:00 am79 °FPassing clouds.1 mph89%29.86 "Hg5 mi
5:30 am79 °FPassing clouds.1 mph89%29.83 "Hg5 mi
5:00 am81 °FPassing clouds.2 mph89%29.83 "Hg5 mi
4:30 am81 °FPassing clouds.2 mph84%29.83 "Hg5 mi
4:00 am81 °FPassing clouds.5 mph84%29.83 "Hg5 mi
3:30 am81 °FPassing clouds.5 mph84%29.83 "Hg5 mi
3:00 am81 °FPassing clouds.5 mph84%29.83 "Hg5 mi
2:30 am82 °FPassing clouds.6 mph84%29.86 "Hg5 mi
2:00 am82 °FPassing clouds.7 mph84%29.86 "HgN/A
1:30 am82 °FPassing clouds.7 mph84%29.86 "HgN/A
1:00 am82 °FPassing clouds.8 mph84%29.86 "HgN/A
12:30 am82 °FPassing clouds.7 mph84%29.86 "HgN/A
12:00 am82 °FPassing clouds.7 mph84%29.89 "HgN/A
11:30 pm
Sat, Apr 22
82 °FPassing clouds.7 mph84%29.89 "HgN/A
11:00 pm82 °FPassing clouds.6 mph84%29.89 "HgN/A
10:30 pm82 °FPassing clouds.6 mph84%29.89 "HgN/A
10:00 pm82 °FPassing clouds.6 mph84%29.89 "HgN/A
9:30 pm84 °FPassing clouds.7 mph79%29.89 "HgN/A
9:00 pm82 °FPassing clouds.5 mph84%29.86 "HgN/A
8:30 pm82 °FPassing clouds.6 mph84%29.86 "HgN/A
8:00 pm82 °FPassing clouds.6 mph84%29.83 "HgN/A
7:30 pm84 °FPassing clouds.6 mph79%29.83 "HgN/A
6:30 pm84 °FPassing clouds.8 mph79%29.83 "HgN/A
6:00 pm84 °FScattered clouds.8 mph79%29.83 "HgN/A
5:30 pm84 °FScattered clouds.8 mph79%29.83 "HgN/A
5:00 pm84 °FBroken clouds.8 mph79%29.83 "HgN/A
4:30 pm86 °FBroken clouds.9 mph75%29.80 "HgN/A
4:00 pm86 °FBroken clouds.8 mph75%29.80 "HgN/A
3:30 pm86 °FBroken clouds.9 mph75%29.80 "HgN/A
3:00 pm86 °FScattered clouds.9 mph75%29.80 "HgN/A
2:30 pm86 °FScattered clouds.8 mph75%29.83 "HgN/A
2:00 pm86 °FScattered clouds.8 mph75%29.83 "HgN/A
1:30 pm88 °FPassing clouds.10 mph66%29.86 "HgN/A
1:00 pm88 °FPassing clouds.12 mph66%29.86 "HgN/A
12:00 pm88 °FPassing clouds.8 mph62%29.86 "HgN/A
11:30 am88 °FPassing clouds.7 mph62%29.86 "Hg6 mi
11:00 am90 °FPassing clouds.3 mph59%29.86 "Hg6 mi
10:30 am88 °FPassing clouds.3 mph70%29.89 "Hg5 mi
10:00 am88 °FPassing clouds.2 mph66%29.89 "Hg5 mi
9:30 am88 °FPassing clouds.2 mph66%29.89 "Hg5 mi
9:00 am84 °FPassing clouds.5 mph74%29.86 "Hg5 mi
8:30 am84 °FPassing clouds.5 mph74%29.86 "Hg5 mi
8:00 am81 °FPartly sunny.3 mph84%29.86 "Hg5 mi
Weather by CustomWeather, © 2017

See weather overviewHow to use our weather pages